sat.trackr.live / text

‹ back to catalog

STARLINK-32151

NORAD 60299 · 2024-132X

PAYLOAD ACTIVE UNKNOWN

§ Identity

Operator
Country
US
Launch date
2024-07-28
Launch site
AFETR
Launch vehicle
Mass (kg)
RCS (m²)

Purposes: comms

External: N2YO · Heavens-Above · Gunter

§ Orbital elements

Epoch: 2026-09-21T00:51:55.057824Z

Period
93.85 min
Inclination
53.1603°
Eccentricity
0.0001068
Mean motion
15.34389059 rev/d
Perigee alt
462.0 km
Apogee alt
463.5 km
Semi-major
6,840.9 km
B*
9.7527e-5
RAAN
195.3210°
Arg perigee
66.1339°
Mean anomaly
293.9775°
Rev number
12,188

§ Raw data

STARLINK-321511 60299U 24132X   26264.03605391  .00002919  00000+0  97527-4 0  99992 60299  53.1603 195.3210 0001068  66.1339 293.9775 15.34389059121889

JSON: /api/v1/satellites/60299 · /tle

For live sub-satellite position, see the globe view (requires WebGL).

§ Visibility from observer

Set your observer location to see the next 7 days of passes ≥ 10°. The values pass through the URL so the page stays shareable.

No JS? Fill the form by hand. The geolocation button needs JavaScript.